Location: *
(51.5000°N, 0.1100°W)
Time: 21:26:53
(UTC+00:00)

Cosmos 1850 Rocket - Pass Details

Date: 25 May 2024
Orbit: 753 x 782 km, 74.0° (Epoch: 16 June)

Event Time Altitude Azimuth Distance (km) Brightness Sun altitude
Exits shadow 02:13:28 16° 219° (SW) 1,952 5.4 -11.6°
Maximum altitude 02:17:43 64° 298° (WNW) 859 4.2 -11.2°
Drops below altitude 10° 02:22:57 10° 20° (NNE) 2,318 7.9 -10.8°
Sets 02:25:21 0° 24° (NNE) 3,244 9.2 -10.6°
